Location: Baix
(44.7118°N, 4.7648°E)
Time: 07:37:36
(UTC+00:00)

Vanguard 1 - Pass Details

Date: 04 December 2020
Orbit: 648 x 3834 km, 34.3° (Epoch: 21 January)

Event Time Altitude Azimuth Distance (km) Brightness Sun altitude
Rises 03:22:57 0° 226° (SW) 3,010 - -38.0°
Reaches altitude 10° 03:25:23 10° 211° (SSW) 2,221 - -37.6°
Maximum altitude 03:29:24 24° 157° (SSE) 1,741 - -36.9°
Exits shadow 03:30:13 23° 145° (SE) 1,835 11.6 -36.7°
Drops below altitude 10° 03:34:55 10° 106° (ESE) 3,133 13.3 -35.9°
Sets 03:39:08 0° 94° (E) 4,617 14.5 -35.2°
